Easton, MD

6:35 AM EDT on September 15, 2019 (GMT -0400)
Easton / Newnam

Weather History for KESN - July, 2019

Change the Weather History Date:

Wednesday, July 17, 2019

  Actual Average Record
Temperature  
Mean Temperature 87 °F -  
Max Temperature 96 °F 89 °F 96 °F (2019)
Min Temperature 78 °F 67 °F 57 °F (1957)
Cooling Degree Days 22    
Growing Degree Days 37 (Base 50)    
Moisture  
Dew Point 75 °F    
Average Humidity 74    
Maximum Humidity 89    
Minimum Humidity 47    
Precipitation  
Precipitation 0.00 in - - ()
Sea Level Pressure  
Sea Level Pressure 30.01 in    
Wind  
Wind Speed 5 mph (South)    
Max Wind Speed 18 mph    
Max Gust Speed 26 mph    
Visibility 10 miles    
Events Rain    
Averages and records for this station are not official NWS values.
T = Trace of Precipitation, MM = Missing Value Source: NWS Daily Summary

Daily Weather History Graph

Daily Weather History Graph

Search for Another Location

Airport or City:

Astronomy

Jul. 17, 2019 Rise Set
Actual Time 5:52 AM EDT 8:27 PM EDT
Civil Twilight 5:21 AM EDT 8:58 PM EDT
Nautical Twilight 4:43 AM EDT 9:36 PM EDT
Astronomical Twilight 4:00 AM EDT 10:19 PM EDT
Moon 9:14 PM EDT (7/17) 6:23 AM EDT (7/17)
Length of Visible Light 15h 36m
Length of Day
14h 34m
Waxing Gibbous, 99% of the Moon is Illuminated
Jul 17
Waxing Gibbous
Jul 24
Last Quarter
Jul 31
New
Aug 7
First Quarter
Aug 15
Full

Hourly Weather History & Observations

Time (EDT) Temp. Heat Index Dew Point Humidity Pressure Visibility Wind Dir Wind Speed Gust Speed Precip Events Conditions
12:19 AM 83.5 °F 89.7 °F 73.0 °F 71% 30.07 in 10.0 mi Calm Calm - N/A   Clear
12:39 AM 83.3 °F 89.6 °F 73.4 °F 72% 30.07 in 10.0 mi Calm Calm - N/A   Clear
12:59 AM 83.1 °F 89.2 °F 73.4 °F 72% 30.07 in 10.0 mi South 3.5 mph - N/A   Clear
1:19 AM 83.1 °F 89.5 °F 73.6 °F 73% 30.07 in 10.0 mi SSE 4.6 mph - N/A   Clear
1:39 AM 82.8 °F 88.7 °F 73.4 °F 73% 30.06 in 10.0 mi South 4.6 mph - N/A   Clear
1:59 AM 82.4 °F 87.9 °F 72.9 °F 73% 30.06 in 10.0 mi South 5.8 mph - N/A   Clear
2:19 AM 82.0 °F 87.4 °F 72.9 °F 74% 30.06 in 10.0 mi South 5.8 mph - N/A   Clear
2:39 AM 81.9 °F 87.0 °F 73.0 °F 74% 30.05 in 10.0 mi South 8.1 mph - N/A   Clear
2:59 AM 81.5 °F 86.7 °F 73.4 °F 76% 30.05 in 10.0 mi South 6.9 mph - N/A   Clear
3:19 AM 81.7 °F 87.1 °F 73.4 °F 76% 30.04 in 10.0 mi South 6.9 mph - N/A   Clear
3:39 AM 81.7 °F 87.1 °F 73.4 °F 76% 30.03 in 10.0 mi South 5.8 mph - N/A   Clear
3:59 AM 81.7 °F 87.1 °F 73.4 °F 76% 30.03 in 10.0 mi South 6.9 mph - N/A   Clear
4:19 AM 81.5 °F 86.9 °F 73.6 °F 77% 30.03 in 10.0 mi South 5.8 mph - N/A   Clear
4:39 AM 81.3 °F 86.5 °F 73.6 °F 77% 30.03 in 10.0 mi South 6.9 mph - N/A   Clear
4:59 AM 81.1 °F 86.6 °F 73.9 °F 79% 30.03 in 10.0 mi South 6.9 mph - N/A   Clear
5:19 AM 81.0 °F 86.3 °F 74.3 °F 80% 30.03 in 10.0 mi South 6.9 mph - N/A   Clear
5:39 AM 81.0 °F 86.3 °F 74.1 °F 80% 30.03 in 10.0 mi South 6.9 mph - N/A   Clear
5:41 AM 81.0 °F 86.3 °F 74.1 °F 80% 30.03 in 10.0 mi South 6.9 mph - N/A   Clear
5:50 AM 80.6 °F 85.4 °F 73.4 °F 79% 30.04 in 10.0 mi South 5.8 mph - N/A   Mostly Cloudy
6:50 AM 80.6 °F 86.2 °F 75.2 °F 84% 30.03 in 10.0 mi South 5.8 mph - N/A   Mostly Cloudy
7:45 AM 82.4 °F 90.9 °F 77.0 °F 84% 30.04 in 10.0 mi SSW 5.8 mph - N/A   Partly Cloudy
8:45 AM 82.4 °F 90.9 °F 77.0 °F 84% 30.04 in 10.0 mi SSW 5.8 mph - N/A   Partly Cloudy
8:48 AM 84.2 °F 94.1 °F 77.0 °F 79% 30.04 in 10.0 mi SW 9.2 mph - N/A   Clear
9:49 AM 87.8 °F 102.5 °F 78.8 °F 75% 30.04 in 10.0 mi SSW 8.1 mph - N/A   Clear
10:53 AM 89.6 °F 104.7 °F 78.8 °F 70% 30.03 in 10.0 mi SSW 5.8 mph - N/A   Partly Cloudy
11:47 AM 93.2 °F 107.2 °F 77.0 °F 59% 30.02 in 10.0 mi SW 5.8 mph - N/A   Partly Cloudy
12:50 PM 93.2 °F 105.0 °F 75.2 °F 56% 30.01 in 10.0 mi SSW 6.9 mph - N/A   Partly Cloudy
1:45 PM 96.8 °F 107.3 °F 73.4 °F 47% 29.99 in 10.0 mi SSW 10.4 mph - N/A   Partly Cloudy
2:50 PM 95.0 °F 107.4 °F 75.2 °F 53% 29.97 in 10.0 mi SW 10.4 mph - N/A   Partly Cloudy
3:50 PM 96.8 °F 109.6 °F 75.2 °F 50% 29.94 in 10.0 mi SW 10.4 mph 17.3 mph N/A   Partly Cloudy
4:50 PM 96.8 °F 109.6 °F 75.2 °F 50% 29.91 in 10.0 mi South 13.8 mph 20.7 mph N/A   Partly Cloudy
5:45 PM 96.8 °F 109.6 °F 75.2 °F 50% 29.90 in 10.0 mi South 17.3 mph 23.0 mph N/A   Partly Cloudy
6:45 PM 91.4 °F 100.1 °F 73.4 °F 55% 29.93 in 10.0 mi SW 18.4 mph 26.5 mph N/A   Mostly Cloudy
7:50 PM 80.6 °F 84.6 °F 71.6 °F 74% 29.95 in 10.0 mi West 5.8 mph - N/A Rain Light Rain
8:54 PM 78.8 °F - 75.2 °F 89% 29.93 in 10.0 mi Calm Calm - N/A   Overcast
9:50 PM 78.8 °F - 75.2 °F 89% 29.95 in 10.0 mi ESE 6.9 mph - N/A   Overcast
10:19 PM 78.6 °F - 74.7 °F 88% 29.95 in 10.0 mi SE 3.5 mph - N/A   Clear
10:39 PM 79.7 °F - 74.5 °F 84% 29.94 in 10.0 mi ESE 3.5 mph - N/A   Clear
10:59 PM 79.0 °F - 74.7 °F 87% 29.94 in 10.0 mi ESE 3.5 mph - N/A   Clear
11:19 PM 79.2 °F - 74.8 °F 87% 29.94 in 10.0 mi SSE 3.5 mph - N/A   Clear
11:39 PM 80.2 °F 85.2 °F 74.7 °F 83% 29.93 in 10.0 mi SSE 3.5 mph - N/A   Clear
11:59 PM 79.5 °F - 74.5 °F 84% 29.93 in 10.0 mi Calm Calm - N/A   Clear